Weather History for Carlsbad, NM

Change the Weather History Date:

Monday, February 18, 2013

  Actual Average Record
Temperature  
Mean Temperature 56 °F -  
Max Temperature 69 °F 62 °F 84 °F (1986)
Min Temperature 44 °F 35 °F 22 °F (1960)
Degree Days  
Heating Degree Days 8    
Growing Degree Days 6 (Base 50)    
Moisture  
Dew Point 4 °F    
Average Humidity 12    
Maximum Humidity 26    
Minimum Humidity 6    
Precipitation  
Precipitation 0.00 in - - ()
Sea Level Pressure  
Sea Level Pressure 29.84 in    
Wind  
Wind Speed 17 mph (WNW)    
Max Wind Speed 29 mph    
Max Gust Speed 36 mph    
Visibility 10 miles    
Events      
Averages and records for this station are not official NWS values.
T = Trace of Precipitation, MM = Missing Value Source: NWS Daily Summary

Daily Weather History Graph

Daily Weather History Graph

Search for Another Location

Airport:

Trip Planner

Search our weather history database for the weather conditions in past years. The results will help you decide how hot, cold, wet, or windy it might be!

Date:

Astronomy

Feb. 18, 2013 Rise Set
Actual Time 6:36 AM MST 5:45 PM MST
Civil Twilight 6:11 AM MST 6:10 PM MST
Nautical Twilight 5:42 AM MST 6:39 PM MST
Astronomical Twilight 5:14 AM MST 7:08 PM MST
Moon 11:43 AM MST (2/18) 1:09 AM MST (2/18)
Length of Visible Light 11h 59m
Length of Day
11h 09m
First Quarter, 59% of the Moon is Illuminated
Feb 18
First Quarter
Feb 25
Full
Mar 4
Last Quarter
Mar 11
New
Mar 19
First Quarter

Hourly Weather History & Observations

Time (MST) Temp. Windchill Dew Point Humidity Pressure Visibility Wind Dir Wind Speed Gust Speed Precip Events Conditions
12:53 AM 63.0 °F - 5.0 °F 10% 29.62 in 10.0 mi West 28.8 mph 33.4 mph N/A   Clear
1:53 AM 61.0 °F - 3.9 °F 10% 29.64 in 10.0 mi West 24.2 mph 35.7 mph N/A   Clear
2:53 AM 59.0 °F - 3.0 °F 11% 29.66 in 10.0 mi West 25.3 mph 31.1 mph N/A   Clear
3:53 AM 57.0 °F - 3.0 °F 11% 29.68 in 10.0 mi West 23.0 mph - N/A   Clear
4:53 AM 55.9 °F - 3.0 °F 12% 29.71 in 10.0 mi West 25.3 mph 31.1 mph N/A   Clear
5:53 AM 54.0 °F - 3.9 °F 13% 29.76 in 10.0 mi West 19.6 mph 25.3 mph N/A   Clear
6:53 AM 53.1 °F - 3.9 °F 14% 29.82 in 10.0 mi West 15.0 mph - N/A   Clear
7:53 AM 57.0 °F - 5.0 °F 12% 29.86 in 10.0 mi West 12.7 mph 20.7 mph N/A   Clear
8:53 AM 61.0 °F - 3.9 °F 10% 29.87 in 10.0 mi West 13.8 mph - N/A   Clear
9:53 AM 64.0 °F - 3.0 °F 9% 29.87 in 10.0 mi NW 15.0 mph 24.2 mph N/A   Clear
10:53 AM 64.9 °F - 1.0 °F 8% 29.88 in 10.0 mi NW 15.0 mph - N/A   Clear
11:53 AM 66.0 °F - 1.0 °F 8% 29.87 in 10.0 mi West 12.7 mph 16.1 mph N/A   Clear
12:53 PM 66.9 °F - -0.9 °F 7% 29.85 in 10.0 mi WSW 5.8 mph - N/A   Clear
1:53 PM 69.1 °F - -2.0 °F 6% 29.83 in 10.0 mi North 4.6 mph - N/A   Clear
2:53 PM 69.1 °F - -2.9 °F 6% 29.83 in 10.0 mi NW 8.1 mph - N/A   Clear
3:53 PM 69.1 °F - -2.9 °F 6% 29.83 in 10.0 mi North 4.6 mph - N/A   Clear
4:53 PM 68.0 °F - -2.0 °F 6% 29.84 in 10.0 mi NE 5.8 mph - N/A   Clear
5:53 PM 60.1 °F - -0.0 °F 9% 29.88 in 10.0 mi ENE 5.8 mph - N/A   Clear
6:53 PM 57.0 °F - 1.0 °F 10% 29.91 in 10.0 mi Calm Calm - N/A   Clear
7:53 PM 53.1 °F - 8.1 °F 16% 29.96 in 10.0 mi East 5.8 mph - N/A   Clear
8:53 PM 51.1 °F - 10.9 °F 20% 29.98 in 10.0 mi East 4.6 mph - N/A   Clear
9:53 PM 50.0 °F - 12.0 °F 22% 30.00 in 10.0 mi ESE 5.8 mph - N/A   Clear
10:53 PM 44.1 °F 40.8 °F 10.9 °F 26% 30.01 in 10.0 mi South 5.8 mph - N/A   Clear
11:53 PM 46.0 °F 41.4 °F 12.9 °F 26% 30.03 in 10.0 mi South 9.2 mph - N/A   Clear